Preview of NWS' New Version of Forecast
This preview is not operational and should not be used for support decisions.

Regional Weather Roundup (RWR)

Issued by Gray - Portland, ME (GYX)

                            
000
ASUS41 KGYX 171806
RWRGYX
WEATHER ROUNDUP FOR MAINE AND NEW HAMPSHIRE
NATIONAL WEATHER SERVICE GRAY ME
200 PM EDT SAT AUG 17 2019

MEZ002-005-006-010-012-015-018-020-021-024-026-027-029-171900-
MAINE
  
CITY           SKY/WX    TMP DP  RH WIND       PRES   REMARKS
PORTLAND       CLOUDY    69  64  84 S7        30.08F                  
6HR MIN TEMP:  68; 6HR MAX TEMP:  70;                                

SANFORD        CLOUDY    68  66  93 SE7       30.09S                  
BAR HARBOR     CLOUDY    66  62  87 SE6       30.12R                  
WISCASSET      CLOUDY    68  61  78 SE7       30.12R                  
6HR MIN TEMP:  64; 6HR MAX TEMP:  69;                                

ROCKLAND       PTSUNNY   64  62  93 SE9       30.12R                  
FRYEBURG       CLOUDY    70  65  84 SE6       30.08S                  
6HR MIN TEMP:  66; 6HR MAX TEMP:  71;                                

AUGUSTA        CLOUDY    68  63  84 S8        30.10R                  
6HR MIN TEMP:  63; 6HR MAX TEMP:  69;                                

WATERVILLE     CLOUDY    68  63  84 VRB5      30.07S                  
BANGOR         CLOUDY    71  62  73 S10G17    30.09S                  
6HR MIN TEMP:  61; 6HR MAX TEMP:  72;                                

GREENVILLE       N/A     62  61  96 SE6       30.08S                  
6HR MIN TEMP:  58; 6HR MAX TEMP:  62; 6HR PCP:  0.10;                

MILLINOCKET    CLOUDY    63  61  93 VRB5      30.10S                  
6HR MIN TEMP:  60; 6HR MAX TEMP:  64; 6HR PCP:  0.37;                

HOULTON        CLOUDY    65  62  90 S5        30.09R                  
6HR MIN TEMP:  62; 6HR MAX TEMP:  65; 6HR PCP:  0.08;                

PRESQUE ISLE   CLOUDY    66  61  84 S8        30.07S                  
6HR MIN TEMP:  60; 6HR MAX TEMP:  66;                                

FRENCHVILLE    CLOUDY    66  60  81 SE9       30.05S                  
6HR MIN TEMP:  60; 6HR MAX TEMP:  68;                                

CARIBOU        RAIN      65  61  87 S6        30.06S                  
6HR MIN TEMP:  62; 6HR MAX TEMP:  66; 6HR PCP:  0.06;                

$$

NHZ002-005-008-009-011-012-014-171900-
NEW HAMPSHIRE
  
CITY           SKY/WX    TMP DP  RH WIND       PRES   REMARKS
PORTSMOUTH     CLOUDY    71  66  84 SE9       30.06S                  
ROCHESTER      CLOUDY    69  66  90 S3        30.07F FOG              
6HR MIN TEMP:  66; 6HR MAX TEMP:  70;                                

NASHUA         CLOUDY    79  71  76 E9        30.05F                  
MANCHESTER     CLOUDY    78  68  71 SE9       30.03F                  
6HR MIN TEMP:  70; 6HR MAX TEMP:  78;                                

CONCORD        CLOUDY    76  68  76 SE6       30.05F                  
6HR MIN TEMP:  66; 6HR MAX TEMP:  76;                                

LACONIA        CLOUDY    71  67  87 VRB3      30.07S                  
PLYMOUTH       CLOUDY    69  65  86 E8        30.06F                  
BERLIN         FAIR      79  64  60 S7        30.04F                  
6HR MIN TEMP:  66; 6HR MAX TEMP:  79;                                

WHITEFIELD     PTSUNNY   78  65  63 VRB6      30.04S                  
6HR MIN TEMP:  65; 6HR MAX TEMP:  80;                                

JAFFREY        PTSUNNY   80  66  62 SW8       30.07F                  
6HR MIN TEMP:  67; 6HR MAX TEMP:  80;                                

KEENE          PTSUNNY   80  69  69 S7        30.03F                  
LEBANON        FAIR      84  66  54 S8        30.00F                  
6HR MIN TEMP:  69; 6HR MAX TEMP:  84;                                

MT WASHINGTON  FOG       54  54 100 W29G39      N/A  VSB 1/16         
6HR MIN TEMP:  52; 6HR MAX TEMP:  54;                                

$$

VTZ005-007-008-171900-
VERMONT
  
CITY           SKY/WX    TMP DP  RH WIND       PRES   REMARKS
ST JOHNSBURY     N/A     78  66  66 MISG      30.00F                  
MONTPELIER     FAIR      80  64  58 S12       30.05S                  
BURLINGTON     PTSUNNY   83  66  56 S13       29.97S                  
$$

MAZ007-012-024-CTZ003-RIZ002-NYZ038-NYZ072-171900-
SOUTHERN NEW ENGLAND AND NY
  
CITY           SKY/WX    TMP DP  RH WIND       PRES   REMARKS
BOSTON         CLOUDY    73  66  78 E9        30.06F                  
WORCESTER      PTSUNNY   76  69  79 SE6       30.08F                  
NANTUCKET      FAIR      75  69  81 E9        30.06F                  
PROVIDENCE     PTSUNNY   76  71  85 S6        30.06S                  
HARTFORD       PTSUNNY   83  70  64 E6        30.03F                  
ALBANY         PTSUNNY   86  69  56 S13       29.98F THUNDER HX  90   
NEW YORK CITY  FAIR      83  70  64 NE12      30.01F                  
$$

ANZ081-ANZ082-ANZ150-NHZ014-MEZ023>029-171900-
COASTAL MARINE OBSERVATIONS
  
STATION/POSITION TIME  TEMP    WIND        PRES    WAVE
                       AIR SEA DIR/SP/G            HT/PER
                 (UTC) (F)     (DEG/KT/KT) (MB)    (FT/S)
MATINICUS ROCK   1750   60                 1019.5R
ISLE OF SHOALS   1700   65     150/  9/  9 1018.1S
JEFFREYS LEDGE   1738      68                N/A     2/ 8
CASHES LEDGE BUO 1650   65 64  150/  4/  6 1019.6    2/ 8
GEORGES BANK BUO 1750   72 70  110/  8/  8 1019.1F   3/ 8
$$

.............KEY..............
   WCI - WIND CHILL
   TC  - TEMPERATURE IN CELSIUS
   VSB - VISIBILITY IN MILES
   HX  - HEAT INDEX
   FAIR- INDICATES FEW OR NO CLOUDS BELOW 12,000 FT, WITH NO 
         SIGNIFICANT WEATHER AND/OR OBSTRUCTIONS TO VISIBILITY.